User: anonymous   Login
Location: Unspecified
(0.0000°N, 0.0000°E)
Time: 00:58:52
(UTC+00:00)
Language:

Orbcomm D8 (FM36) - Orbit

View from above orbital plane
View from above orbital plane
View from above satellite
View from above satellite

Ground track
Ground track

The orbit data is extracted from the following two-line orbital elements,

1 25984U 99065E   18173.54431793 +.00000154 +00000-0 +10747-3 0  9995
2 25984 045.0369 221.0735 0004758 212.2026 147.8531 14.32631262968334
Epoch (UTC): 22 June 2018 13:03:49
Eccentricity: 0.0004758
inclination: 45.0369°
perigee height: 779 km
apogee height: 786 km
right ascension of ascending node: 221.0735°
argument of perigee: 212.2026°
revolutions per day: 14.32631262
mean anomaly at epoch: 147.8531°
orbit number at epoch: 96833

The dashed part of the orbit path shows where the satellite is in the earth's shadow,  

DLR